Location: PACMO
(41.3967°N, 90.3760°W)
Time: 20:34:54
(UTC-05:00)

NOAA 19 - Visible Passes

Search period start: 23 April 2017 00:00
Search period end: 03 May 2017 00:00
Orbit: 841 x 863 km, 99.1° (Epoch: 22 April)

Date Brightness Start Highest point End Pass type
(mag) Time Alt. Az. Time Alt. Az. Time Alt. Az.
23 Apr 5.9 04:10:54 10° NNE 04:16:14 51° E 04:21:18 11° S visible
24 Apr 6.3 03:59:34 10° NNE 04:04:43 40° E 04:09:48 10° SSE visible
25 Apr 6.7 03:48:18 10° NE 03:53:11 32° E 03:58:02 10° SSE visible
25 Apr 6.0 05:28:54 10° N 05:33:50 35° WNW 05:38:46 10° SW visible
26 Apr 7.1 03:37:08 10° NE 03:41:37 25° E 03:46:05 10° SSE visible
26 Apr 5.7 05:17:16 10° N 05:22:26 44° WNW 05:27:37 10° SW visible
27 Apr 7.4 03:26:04 10° NE 03:30:02 20° E 03:33:59 10° SE visible
27 Apr 5.4 05:05:40 10° N 05:11:02 55° WNW 05:16:23 10° SSW visible
28 Apr 7.6 03:15:13 10° NE 03:18:26 16° E 03:21:38 10° SE visible
28 Apr 5.2 04:54:07 10° N 04:59:36 69° WNW 05:05:04 10° SSW visible
29 Apr 7.8 03:04:47 10° ENE 03:06:48 12° E 03:08:49 10° ESE visible
29 Apr 5.2 04:42:37 10° NNE 04:48:09 86° WNW 04:53:40 10° SSW visible
30 Apr 5.4 04:31:09 10° NNE 04:36:40 76° ESE 04:42:11 10° S visible
01 May 5.7 04:19:44 10° NNE 04:25:11 60° ESE 04:30:38 10° S visible
02 May 6.1 04:08:22 10° NNE 04:13:40 47° E 04:18:59 10° S visible
